This demonstration page uses our WeatherBlox Daily Observations layout. Learn more.

Left ArrowRight Arrow

Hourly Observations for December 23, 2017

Temp ( °F °C ) Dew Point ( °F °C ) Humidity (%) Winds ( mph kmh ) Pressure ( in mb ) Visibility ( mi km ) Precip ( " mm )
12:15 am 00:15 Cloudy with Light Rain 43 6 41 5 93 93 N N/A 30.09 1019 10 16 0.01 0.25
12:35 am 00:35 Cloudy with Light Rain 43 6 41 5 93 93 N N/A 30.09 1019 10 16 0.01 0.25
12:55 am 00:55 Cloudy with Light Rain 43 6 41 5 93 93 N 6 9 30.09 1019 10 16 0.01 0.25
1:15 am 01:15 Cloudy with Light Rain 43 6 41 5 93 93 NNE 6 9 30.09 1019 7 11 0.01 0.25
1:35 am 01:35 Cloudy with Light Rain 43 6 41 5 93 93 NNE 5 7 30.09 1019 7 11 0.02 0.51
1:55 am 01:55 Cloudy with Light Rain 43 6 41 5 93 93 NNE 3 6 30.09 1019 7 11 0.03 0.76
2:15 am 02:15 Cloudy with Rain 43 6 43 6 100 100 N N/A 30.06 1018 4 6 0.02 0.51
2:35 am 02:35 Cloudy with Light Rain 43 6 43 6 100 100 N N/A 30.06 1018 5 8 0.03 0.76
2:55 am 02:55 Cloudy with Light Rain 43 6 43 6 100 100 N N/A 30.06 1018 4 6 0.04 1.02
3:15 am 03:15 Cloudy with Rain 41 5 41 5 100 100 N N/A 30.06 1018 5 8 0.01 0.25
3:35 am 03:35 Cloudy with Light Rain 41 5 41 5 100 100 N N/A 30.03 1017 3 5 0.02 0.51
3:55 am 03:55 Cloudy with Mist and Fog 41 5 41 5 100 100 N N/A 30.00 1016 3 5 0.02 0.51
4:15 am 04:15 Cloudy with Mist and Fog 41 5 41 5 100 100 N N/A 30.00 1016 4 6 N/A
4:35 am 04:35 Cloudy with Mist and Fog 41 5 41 5 100 100 NW 5 7 30.00 1016 3 5 N/A
4:55 am 04:55 Cloudy with Mist and Fog 41 5 41 5 100 100 N N/A 30.00 1016 3 4 N/A
5:15 am 05:15 Cloudy with Mist and Fog 41 5 41 5 100 100 N N/A 29.97 1015 3 5 N/A
5:35 am 05:35 Cloudy with Mist and Fog 41 5 41 5 100 100 N N/A 29.97 1015 3 5 N/A
5:55 am 05:55 Cloudy with Mist and Fog 41 5 41 5 100 100 N N/A 29.94 1014 2 3 N/A
6:15 am 06:15 Cloudy with Mist and Fog 41 5 41 5 100 100 N N/A 29.94 1014 3 5 N/A
6:35 am 06:35 Cloudy with Mist and Fog 41 5 41 5 100 100 N N/A 29.94 1014 3 4 N/A
6:55 am 06:55 Cloudy with Mist and Fog 41 5 41 5 100 100 N N/A 29.91 1013 3 4 N/A
7:15 am 07:15 Cloudy with Mist and Fog 41 5 41 5 100 100 N N/A 29.91 1013 3 4 N/A
7:35 am 07:35 Cloudy with Mist and Fog 41 5 41 5 100 100 N N/A 29.94 1014 2 3 N/A
7:55 am 07:55 Cloudy with Mist and Fog 41 5 41 5 100 100 N N/A 29.91 1013 3 4 N/A
8:15 am 08:15 Cloudy with Mist and Fog 43 6 43 6 100 100 ESE 5 7 29.88 1012 2 3 N/A
8:35 am 08:35 Cloudy with Mist and Fog 43 6 43 6 100 100 N N/A 29.88 1012 2 3 N/A
8:55 am 08:55 Cloudy with Mist and Fog 43 6 43 6 100 100 SSE 3 6 29.85 1011 2 3 N/A
9:15 am 09:15 Cloudy with Mist and Fog 43 6 43 6 100 100 SW 3 6 29.85 1011 3 5 N/A
9:35 am 09:35 Cloudy with Mist and Fog 43 6 43 6 100 100 SSW 3 6 29.85 1011 3 5 N/A
9:55 am 09:55 Cloudy with Mist and Fog 45 7 45 7 100 100 SSW 3 6 29.85 1011 4 6 N/A
10:15 am 10:15 Cloudy with Rain 45 7 45 7 100 100 N N/A 29.83 1010 4 6 N/A
10:35 am 10:35 Cloudy with Light Rain 45 7 45 7 100 100 SSW 6 9 29.83 1010 5 8 N/A
10:55 am 10:55 Cloudy with Rain 46 8 46 8 100 100 SSW 12 19 29.80 1009 5 8 0.01 0.25
11:15 am 11:15 Cloudy with Rain 48 9 48 9 100 100 SSW 10 17 29.77 1008 5 8 0.04 1.02
11:35 am 11:35 Cloudy with Rain 50 10 50 10 100 100 SSW 9 15 29.77 1008 5 8 0.06 1.52
11:55 am 11:55 Cloudy with Light Rain 52 11 52 11 100 100 SSW 16 26 29.71 1006 7 11 0.07 1.78
12:15 pm 12:15 Cloudy with Light Rain 54 12 54 12 100 100 SSW 15 24 29.74 1007 10 16 0.01 0.25
12:35 pm 12:35 Cloudy with Light Rain 54 12 54 12 100 100 SSW 14 22 29.74 1007 10 16 0.01 0.25
12:55 pm 12:55 Cloudy with Light Rain 54 12 54 12 100 100 SSW 13 20 29.71 1006 7 11 0.02 0.51
1:15 pm 13:15 Cloudy with Light Rain 55 13 55 13 100 100 SSW 17 28 29.68 1005 10 16 0.01 0.25
1:35 pm 13:35 Cloudy with Light Rain 55 13 55 13 100 100 SSW 21 33 29.65 1004 10 16 0.01 0.25
1:55 pm 13:55 Partly Cloudy 55 13 55 13 100 100 SSW 18 30 29.68 1005 10 16 0.01 0.25
2:15 pm 14:15 Mostly Cloudy with Light Rain 57 14 55 13 94 94 SSW 13 20 29.65 1004 10 16 N/A
2:35 pm 14:35 Cloudy with Light Rain 59 15 55 13 88 88 SW 14 22 29.68 1005 10 16 N/A
2:55 pm 14:55 Mostly Cloudy 59 15 57 14 94 94 SSW 14 22 29.68 1005 10 16 N/A
3:15 pm 15:15 Mostly Cloudy 59 15 57 14 94 94 SSW 17 28 29.65 1004 10 16 N/A
3:35 pm 15:35 Mostly Cloudy 59 15 57 14 94 94 SSW 16 26 29.68 1005 10 16 N/A
3:55 pm 15:55 Cloudy 59 15 57 14 94 94 SSW 16 26 29.65 1004 10 16 N/A
4:15 pm 16:15 Cloudy 59 15 57 14 94 94 SW 10 17 29.68 1005 10 16 N/A
4:35 pm 16:35 Cloudy 61 16 57 14 88 88 SW 13 20 29.68 1005 10 16 N/A
4:55 pm 16:55 Cloudy 61 16 59 15 94 94 W 10 17 29.71 1006 10 16 N/A
5:15 pm 17:15 Cloudy with Rain 59 15 59 15 100 100 W 10 17 29.71 1006 5 8 0.02 0.51
5:35 pm 17:35 Cloudy with Heavy Rain 54 12 54 12 100 100 NNW 23 37 29.77 1008 4 6 0.12 3.05
5:55 pm 17:55 Cloudy with Rain 50 10 50 10 100 100 NNW 25 41 29.80 1009 7 11 0.14 3.56
6:15 pm 18:15 Cloudy 50 10 48 9 94 94 NNW 26 43 29.83 1010 10 16 N/A
6:35 pm 18:35 Cloudy with Drizzle 50 10 46 8 88 88 NNW 17 28 29.83 1010 10 16 N/A
6:55 pm 18:55 Mostly Cloudy 50 10 46 8 88 88 N 10 17 29.85 1011 10 16 N/A
7:15 pm 19:15 Partly Cloudy 50 10 45 7 82 82 N 9 15 29.85 1011 10 16 N/A
7:35 pm 19:35 Mostly Cloudy 50 10 45 7 82 82 N 9 15 29.91 1013 10 16 N/A
7:55 pm 19:55 Cloudy 50 10 45 7 82 82 NNW 13 20 29.94 1014 10 16 N/A
8:15 pm 20:15 Cloudy 50 10 45 7 82 82 N 17 28 29.97 1015 10 16 N/A
8:35 pm 20:35 Cloudy 48 9 41 5 76 76 N 16 26 30.03 1017 10 16 N/A
8:55 pm 20:55 Cloudy 46 8 41 5 82 82 N 12 19 30.03 1017 10 16 N/A
9:15 pm 21:15 Partly Cloudy 46 8 41 5 82 82 N 9 15 30.00 1016 10 16 N/A
9:35 pm 21:35 Mostly Cloudy 45 7 41 5 87 87 N 6 9 30.03 1017 10 16 N/A
9:55 pm 21:55 Partly Cloudy 45 7 39 4 81 81 N 12 19 30.06 1018 10 16 N/A
10:15 pm 22:15 Clear 45 7 39 4 81 81 NNW 20 31 30.06 1018 10 16 N/A
10:35 pm 22:35 Clear 45 7 37 3 76 76 NNW 21 33 30.09 1019 10 16 N/A
10:55 pm 22:55 Partly Cloudy 45 7 37 3 76 76 NNE 6 9 30.12 1020 10 16 N/A
11:15 pm 23:15 Partly Cloudy 45 7 37 3 76 76 N 15 24 30.09 1019 10 16 N/A
11:35 pm 23:35 Clear 43 6 37 3 81 81 NNW 14 22 30.09 1019 10 16 N/A
11:55 pm 23:55 Clear 43 6 37 3 81 81 NNW 14 22 30.12 1020 10 16 N/A

Powered by AerisWeather